Airport METAR Information

LTBA 240020Z 06006KT CAVOK 07/M01 Q1023 NOSIG

VATSIM Livefeed

Card image cap

ATC Bookings

No position booked

Card image cap

Active ATC

No controllers online

Blog

Read our latest news and get to know us better.